Freeport, IL

9:46 PM CDT on August 16, 2017 (GMT -0500)
Albertus

Weather History for KFEP - October, 2013

Change the Weather History Date:

Saturday, October 26, 2013

  Actual Average Record
Temperature  
Mean Temperature 42 °F -  
Max Temperature 54 °F 57 °F 78 °F (1989)
Min Temperature 31 °F 36 °F 22 °F (1979)
Degree Days  
Heating Degree Days 22    
Moisture  
Dew Point 30 °F    
Average Humidity 58    
Maximum Humidity 86    
Minimum Humidity 41    
Precipitation  
Precipitation 0.00 in - - ()
Sea Level Pressure  
Sea Level Pressure 29.98 in    
Wind  
Wind Speed 14 mph (West)    
Max Wind Speed 21 mph    
Max Gust Speed 29 mph    
Visibility 10 miles    
Events      
Averages and records for this station are not official NWS values.
T = Trace of Precipitation, MM = Missing Value Source: NWS Daily Summary

Daily Weather History Graph

Daily Weather History Graph

Search for Another Location

Airport or City:

Trip Planner

Search our weather history database for the weather conditions in past years. The results will help you decide how hot, cold, wet, or windy it might be!

Date:

Astronomy

Oct. 26, 2013 Rise Set
Actual Time 7:24 AM CDT 5:59 PM CDT
Civil Twilight 6:55 AM CDT 6:28 PM CDT
Nautical Twilight 6:22 AM CDT 7:01 PM CDT
Astronomical Twilight 5:50 AM CDT 7:33 PM CDT
Moon No Moon Rise 1:41 PM CDT (10/26)
Length of Visible Light 11h 32m
Length of Day
10h 35m
Waning Gibbous, 53% of the Moon is Illuminated
Oct 26
Waning Gibbous
Oct 26
Last Quarter
Nov 3
New
Nov 9
First Quarter
Nov 17
Full

Hourly Weather History & Observations

Time (CDT) Temp. Windchill Dew Point Humidity Pressure Visibility Wind Dir Wind Speed Gust Speed Precip Events Conditions
12:15 AM 41.2 °F 33.0 °F 27.1 °F 57% 30.01 in 10.0 mi SW 16.1 mph 20.7 mph N/A   Clear
12:35 AM 41.2 °F 33.4 °F 27.9 °F 59% 30.01 in 10.0 mi SW 15.0 mph - N/A   Clear
12:55 AM 41.2 °F 33.7 °F 28.0 °F 60% 29.99 in 10.0 mi SW 13.8 mph - N/A   Clear
1:15 AM 41.2 °F 34.1 °F 28.4 °F 60% 29.99 in 10.0 mi SW 12.7 mph 17.3 mph N/A   Clear
1:35 AM 41.5 °F 34.2 °F 27.9 °F 58% 29.97 in 10.0 mi SW 13.8 mph 18.4 mph N/A   Clear
1:55 AM 43.7 °F 36.3 °F 27.5 °F 53% 29.96 in 10.0 mi SW 16.1 mph 24.2 mph N/A   Clear
2:15 AM 43.7 °F 36.0 °F 27.5 °F 53% 29.93 in 10.0 mi SW 17.3 mph 23.0 mph N/A   Clear
2:35 AM 43.7 °F 35.7 °F 27.5 °F 53% 29.91 in 10.0 mi SW 18.4 mph 25.3 mph N/A   Clear
2:55 AM 43.7 °F 36.0 °F 28.0 °F 54% 29.91 in 10.0 mi SW 17.3 mph 23.0 mph N/A   Clear
3:15 AM 43.7 °F 35.7 °F 28.8 °F 56% 29.90 in 10.0 mi SW 18.4 mph 23.0 mph N/A   Clear
3:35 AM 43.7 °F 35.4 °F 28.2 °F 54% 29.89 in 10.0 mi SW 19.6 mph 28.8 mph N/A   Clear
3:55 AM 43.7 °F 36.6 °F 28.0 °F 54% 29.90 in 10.0 mi SW 15.0 mph 21.9 mph N/A   Scattered Clouds
4:15 AM 43.7 °F 36.6 °F 28.8 °F 56% 29.89 in 10.0 mi SW 15.0 mph 20.7 mph N/A   Mostly Cloudy
4:35 AM 43.2 °F 37.0 °F 29.8 °F 59% 29.88 in 10.0 mi SW 11.5 mph - N/A   Mostly Cloudy
4:55 AM 44.4 °F 37.2 °F 28.9 °F 55% 29.87 in 10.0 mi WSW 16.1 mph 21.9 mph N/A   Overcast
5:15 AM 45.0 °F 37.6 °F 28.2 °F 52% 29.87 in 10.0 mi SW 17.3 mph 23.0 mph N/A   Overcast
5:35 AM 45.0 °F 37.6 °F 28.4 °F 52% 29.87 in 10.0 mi SW 17.3 mph 25.3 mph N/A   Overcast
5:55 AM 45.0 °F 38.2 °F 28.9 °F 53% 29.87 in 10.0 mi WSW 15.0 mph 21.9 mph N/A   Overcast
6:15 AM 45.0 °F 40.1 °F 29.5 °F 55% 29.87 in 10.0 mi WSW 9.2 mph 20.7 mph N/A   Overcast
6:35 AM 43.7 °F 37.3 °F 29.7 °F 58% 29.87 in 10.0 mi WSW 12.7 mph 18.4 mph N/A   Scattered Clouds
6:55 AM 43.7 °F 37.7 °F 30.6 °F 60% 29.87 in 10.0 mi WSW 11.5 mph 16.1 mph N/A   Clear
7:15 AM 43.3 °F 37.7 °F 31.1 °F 62% 29.87 in 10.0 mi WSW 10.4 mph - N/A   Clear
7:35 AM 41.2 °F 35.0 °F 30.2 °F 65% 29.87 in 10.0 mi WSW 10.4 mph - N/A   Clear
7:55 AM 41.2 °F 35.0 °F 31.1 °F 67% 29.87 in 10.0 mi WSW 10.4 mph - N/A   Clear
8:15 AM 42.8 °F 37.0 °F 31.8 °F 65% 29.88 in 10.0 mi WSW 10.4 mph - N/A   Clear
8:35 AM 43.5 °F 38.9 °F 32.9 °F 66% 29.89 in 10.0 mi West 8.1 mph - N/A   Clear
8:55 AM 43.7 °F 38.6 °F 33.1 °F 66% 29.90 in 10.0 mi WSW 9.2 mph - N/A   Clear
9:15 AM 43.7 °F 39.1 °F 33.3 °F 67% 29.90 in 10.0 mi West 8.1 mph - N/A   Clear
9:35 AM 45.1 °F 39.5 °F 34.7 °F 67% 29.90 in 10.0 mi West 11.5 mph - N/A   Clear
9:55 AM 46.4 °F 40.4 °F 35.2 °F 65% 29.91 in 10.0 mi WNW 13.8 mph 20.7 mph N/A   Clear
10:15 AM 47.3 °F - 34.3 °F 61% 29.90 in 10.0 mi WNW 16.1 mph 25.3 mph N/A   Clear
10:35 AM 48.9 °F - 35.4 °F 60% 29.91 in 10.0 mi WNW 16.1 mph 25.3 mph N/A   Clear
10:55 AM 51.3 °F - 36.5 °F 57% 29.92 in 10.0 mi NW 18.4 mph 26.5 mph N/A   Clear
11:15 AM 50.7 °F - 36.5 °F 58% 29.93 in 10.0 mi NW 16.1 mph 20.7 mph N/A   Clear
11:35 AM 51.4 °F - 35.6 °F 55% 29.94 in 10.0 mi NW 17.3 mph 23.0 mph N/A   Clear
11:55 AM 52.9 °F - 36.0 °F 53% 29.95 in 10.0 mi NW 16.1 mph 23.0 mph N/A   Clear
12:15 PM 52.0 °F - 33.3 °F 49% 29.95 in 10.0 mi WNW 16.1 mph 27.6 mph N/A   Scattered Clouds
12:35 PM 54.0 °F - 34.5 °F 48% 29.95 in 10.0 mi NW 17.3 mph 26.5 mph N/A   Scattered Clouds
12:55 PM 54.0 °F - 34.2 °F 47% 29.95 in 10.0 mi WNW 20.7 mph 26.5 mph N/A   Mostly Cloudy
1:15 PM 54.0 °F - 33.4 °F 46% 29.96 in 10.0 mi WNW 18.4 mph 25.3 mph N/A   Scattered Clouds
1:35 PM 52.9 °F - 31.8 °F 45% 29.97 in 10.0 mi NNW 20.7 mph 26.5 mph N/A   Scattered Clouds
1:55 PM 54.0 °F - 31.5 °F 42% 29.97 in 10.0 mi NW 18.4 mph 25.3 mph N/A   Mostly Cloudy
2:15 PM 54.0 °F - 31.1 °F 42% 29.98 in 10.0 mi NW 19.6 mph 25.3 mph N/A   Scattered Clouds
2:35 PM 54.0 °F - 31.5 °F 42% 29.99 in 10.0 mi WNW 18.4 mph 24.2 mph N/A   Scattered Clouds
2:55 PM 53.8 °F - 30.6 °F 41% 29.99 in 10.0 mi NW 19.6 mph 25.3 mph N/A   Clear
3:15 PM 54.0 °F - 30.4 °F 41% 30.00 in 10.0 mi NNW 17.3 mph 23.0 mph N/A   Clear
3:35 PM 54.0 °F - 30.9 °F 41% 30.01 in 10.0 mi NW 18.4 mph 28.8 mph N/A   Scattered Clouds
3:55 PM 51.8 °F - 29.7 °F 43% 30.02 in 10.0 mi WNW 10.4 mph 17.3 mph N/A   Overcast
4:15 PM 50.9 °F - 31.1 °F 47% 30.03 in 10.0 mi NNW 10.4 mph 17.3 mph N/A   Overcast
4:35 PM 49.1 °F - 29.7 °F 47% 30.04 in 10.0 mi NNW 10.4 mph - N/A   Overcast
4:55 PM 50.9 °F - 29.7 °F 44% 30.04 in 10.0 mi NW 15.0 mph 19.6 mph N/A   Mostly Cloudy
5:15 PM 49.5 °F - 27.7 °F 43% 30.04 in 10.0 mi NW 13.8 mph 24.2 mph N/A   Scattered Clouds
5:35 PM 47.5 °F - 27.5 °F 46% 30.05 in 10.0 mi NW 8.1 mph - N/A   Clear
5:55 PM 46.4 °F 41.5 °F 27.7 °F 48% 30.05 in 10.0 mi NW 10.4 mph - N/A   Clear
6:15 PM 44.2 °F 41.0 °F 29.1 °F 55% 30.06 in 10.0 mi NW 5.8 mph - N/A   Scattered Clouds
6:35 PM 42.6 °F 37.8 °F 29.8 °F 61% 30.06 in 10.0 mi NW 8.1 mph - N/A   Scattered Clouds
6:55 PM 41.2 °F 36.6 °F 29.3 °F 63% 30.07 in 10.0 mi NW 6.9 mph - N/A   Clear
7:15 PM 41.5 °F 37.8 °F 28.6 °F 60% 30.08 in 10.0 mi NW 5.8 mph - N/A   Clear
7:35 PM 41.7 °F 38.8 °F 28.4 °F 59% 30.09 in 10.0 mi WNW 4.6 mph - N/A   Clear
7:55 PM 41.2 °F 37.3 °F 28.8 °F 61% 30.09 in 10.0 mi WNW 5.8 mph - N/A   Clear
8:15 PM 40.8 °F 36.9 °F 29.1 °F 63% 30.09 in 10.0 mi WNW 5.8 mph - N/A   Clear
8:35 PM 40.6 °F 36.7 °F 28.9 °F 63% 30.10 in 10.0 mi WNW 5.8 mph - N/A   Clear
8:55 PM 38.7 °F 36.3 °F 28.4 °F 67% 30.10 in 10.0 mi WNW 3.5 mph - N/A   Clear
9:15 PM 37.8 °F 35.3 °F 29.3 °F 72% 30.10 in 10.0 mi West 3.5 mph - N/A   Clear
9:35 PM 34.9 °F - 28.8 °F 78% 30.10 in 10.0 mi Calm Calm - N/A   Clear
9:55 PM 33.8 °F - 27.9 °F 79% 30.10 in 10.0 mi Calm Calm - N/A   Clear
10:15 PM 31.5 °F - 27.5 °F 85% 30.10 in 10.0 mi Calm Calm - N/A   Clear
10:35 PM 33.4 °F 29.1 °F 29.7 °F 86% 30.10 in 10.0 mi WSW 4.6 mph - N/A   Clear
10:55 PM 34.5 °F 30.4 °F 28.9 °F 80% 30.10 in 10.0 mi WSW 4.6 mph - N/A   Clear
11:15 PM 36.1 °F 32.3 °F 29.7 °F 77% 30.10 in 10.0 mi WSW 4.6 mph - N/A   Clear
11:35 PM 36.1 °F 30.6 °F 29.5 °F 77% 30.11 in 10.0 mi West 6.9 mph - N/A   Clear
11:55 PM 36.3 °F 31.6 °F 29.7 °F 77% 30.10 in 10.0 mi West 5.8 mph - N/A   Clear